Regional Weather Roundup
Issued by NWS Cleveland, OH

Home | Current Version | Previous Version | Text Only | Print | Product List | Glossary Off
Versions: 1 2 3 4 5 6 7 8 9 10 11 12 13 14 15 16 17 18 19 20 21 22 23 24 25 26 27 28 29 30 31 32 33 34 35 36 37 38 39 40 41 42 43 44 45 46 47 48 49 50

000
ASUS41 KCLE 281202
RWRCLE
OHIO REGIONAL WEATHER ROUNDUP
NATIONAL WEATHER SERVICE CLEVELAND, OH
700 AM EST SAT FEB 28 2015

NOTE: "FAIR" INDICATES FEW OR NO CLOUDS BELOW 12,000 FEET WITH NO
SIGNIFICANT WEATHER AND/OR OBSTRUCTIONS TO VISIBILITY.

OHZ001>008-015>018-024>027-034-035-043-044-281300-
   NORTHWEST OHIO

CITY           SKY/WX    TMP DP  RH WIND       PRES   REMARKS
DEFIANCE       PTCLDY    -6 -12  75 CALM      30.73R
FINDLAY        PTCLDY     0  -8  69 E3        30.71S
TOLEDO EXPRESS PTCLDY    -9 -13  83 CALM      30.73R
TOLEDO EXEC    PTCLDY    -2 -10  69 S3        30.75R
LIMA           PTCLDY     1  -7  68 CALM      30.69R
$$

OHZ009>014-019>023-028>033-038-089-281300-
   NORTHEAST OHIO

CITY           SKY/WX    TMP DP  RH WIND       PRES   REMARKS
CLE-HOPKINS    PTCLDY    -8 -14  74 CALM      30.77R
CLE-LAKEFRONT  PTCLDY     4  -4  69 S10       30.75S WCI -11
CUY CO. ARPT   PTCLDY    -6  -9  84 SE5       30.74  WCI -17
LORAIN-ELYRIA  MOCLDY    -8 -12  83 S3        30.74S
ASHTABULA      PTCLDY    -7 -13  75 S3        30.74R
AKRON-CANTON   MOCLDY    -2  -6  83 CALM      30.70S
WOOSTER        MOCLDY   -14 -18  82 CALM      30.71R FOG
MANSFIELD      PTCLDY    -3  -8  79 SE3       30.68R
YOUNGSTOWN     PTCLDY    -7 -11  83 SE3       30.70F
$$

OHZ042-051>053-060>062-070>072-077>081-281300-
  SOUTHWEST OHIO

CITY           SKY/WX    TMP DP  RH WIND       PRES   REMARKS
CINC-COVINGTON CLOUDY    13   0  56 E8        30.68R WCI   2
CINC-LUNKEN    MOCLDY    10   1  67 N5        30.75R WCI   2
HAMILTON       PTCLDY     6   0  76 NE3       30.73R
DAYTON         MOCLDY     8  -1  66 SE6       30.69R WCI  -2
WRIGHT-PAT AFB NOT AVBL
DAYTON GENERAL PTCLDY     9  -2  61 E7        30.68R WCI  -2
WILMINGTON     PTCLDY     6  -5  60 E5        30.68R WCI  -3
$$

OHZ036-037-039>041-045>050-054>059-063>069-073>076-082>088-281300-
  CENTRAL AND SOUTHEAST OHIO

CITY           SKY/WX    TMP DP  RH WIND       PRES   REMARKS
COLUMBUS       MOCLDY     2  -6  69 CALM      30.72R
OSU AIRPORT    PTCLDY     3  -4  72 E5        30.71R WCI  -6
BOLTON FIELD   NOT AVBL
RICKENBACK AFB NOT AVBL
NEWARK         PTCLDY    -8 -12  83 CALM      30.72R
MARION         PTCLDY   -10 -17  71 CALM      30.71R
LANCASTER      CLEAR     -4  -8  83 CALM      30.72R
ZANESVILLE     PTCLDY    -1  -7  75 CALM      30.72R
NEW PHILLY     FAIR      -2  -9  72 CALM      30.75R
$$



USA.gov is the U.S. government's official web portal to all federal, state and local government web resources and services.